Location: Pitton
(51.0667°N, 1.7000°W)
Time: 22:38:33
(UTC+00:00)

Cosmos 1025 Rocket - Pass Details

Date: 17 September 2019
Orbit: 593 x 619 km, 82.5° (Epoch: 14 October)

Event Time Altitude Azimuth Distance (km) Brightness Sun altitude
Rises 19:02:16 0° 348° (NNW) 2,853 6.8 -7.8°
Reaches altitude 10° 19:04:29 10° 348° (NNW) 1,943 6.0 -8.2°
Maximum altitude 19:08:46 81° 262° (W) 608 3.1 -8.8°
Drops below altitude 10° 19:13:01 10° 175° (S) 1,924 5.4 -9.5°
Sets 19:15:13 0° 174° (S) 2,821 6.2 -9.8°
